Regional Weather Roundup
Issued by NWS Albany, NY

Home | Current Version | Previous Version | Graphics & Text | Print | Product List | Glossary Off
Versions: 1 2 3 4 5 6 7 8 9 10 11 12 13 14 15 16 17 18 19 20 21 22 23 24 25 26 27

000
ASUS41 KALY 250310
RWRALY

NEW YORK STATE HOURLY WEATHER ROUNDUP
NATIONAL WEATHER SERVICE ALBANY NY
1000 PM EST SAT FEB 24 2018

NOTE: "FAIR" INDICATES FEW OR NO CLOUDS BELOW 12,000 FEET WITH NO
SIGNIFICANT WEATHER AND/OR NO OBSTRUCTIONS TO VISIBILITY.

NYZ032-033-038>043-046>054-057>066-NYZ062>081-082-084-250400-
EAST


CITY           SKY/WX    TMP DP  RH WIND       PRES   REMARKS
ALBANY         CLOUDY    37  29  72 N5        30.25S WCI  33
GLENS FALLS    FAIR      33  26  75 N9        30.26S WCI  25
POUGHKEEPSIE   CLOUDY    39  38  96 CALM      30.22F FOG
NEWBURGH       CLOUDY    39  39 100 CALM      30.24S
MONTGOMERY     CLOUDY    39  38  96 N5        30.20F
WHITE PLAINS   MOCLDY    42  38  85 NE5       30.19F
ISLIP          DRIZZLE   44  43  96 N14       30.21F FOG
NEW YORK CITY  LGT RAIN  44  41  89 E14       30.22R
CENTRAL PARK   CLOUDY    45  43  93 NE7       30.24R FOG
$$

NYZ005>009-017-018-044>046-055-056-250400-
CENTRAL


CITY           SKY/WX    TMP DP  RH WIND       PRES   REMARKS
FULTON         CLOUDY    32  28  85 E3        30.20F
SYRACUSE       CLOUDY    33  31  92 E5        30.20F WCI  29
ROME           FAIR      29  27  92 CALM      30.24R
ELMIRA         CLOUDY    37  34  89 NE3       30.16F
BINGHAMTON     CLOUDY    35  30  82 E6        30.15F WCI  30
MONTICELLO     CLOUDY    35  35 100 E6        30.19S FOG     WCI  30
$$

NYZ026>034-041>043-087-250400-
NORTH


CITY           SKY/WX    TMP DP  RH WIND       PRES   REMARKS
WATERTOWN      FAIR      29  26  89 E6        30.23F WCI  23
FORT DRUM      NOT AVBL
OGDENSBURG     FAIR      27  26  95 E6        30.26F WCI  20
MASSENA        FAIR      26  23  88 E3        30.30S
SARANAC LAKE   FAIR      24  23  96 N3        30.19S
PLATTSBURGH    FAIR      28  23  81 CALM      30.31R
$$

NYZ001>004-010>016-019>021-085-250400-
WEST


CITY           SKY/WX    TMP DP  RH WIND       PRES   REMARKS
NIAGARA FALLS  FAIR      37  28  70 E13       30.08F WCI  29
BUFFALO        FAIR      37  31  78 E13       30.08F WCI  29
DUNKIRK        CLOUDY    38  35  89 NE7       30.03F WCI  33
JAMESTOWN        N/A    N/A N/A N/A MISG        N/A
WELLSVILLE     CLOUDY    35  34  96 SE10      30.08F FOG     WCI  27
ROCHESTER      CLOUDY    37  30  75 E8        30.16F WCI  31
PENN YAN       CLOUDY    35  29  78 CALM      30.16F
$$

             KEY
       WCI = WIND CHILL INDEX
       VSB = VISIBILITY
       HX  = HEAT INDEX
$$




USA.gov is the U.S. government's official web portal to all federal, state and local government web resources and services.